Weather in Dartmouth

United Kingdom     50°21′10″N   3°35′25″W
В апреле 2022 года жителям России запретили посещать сайт meteo.paraplan.net по решению Генеральной прокуратуры. Аудитория сайта уменьшилась в 10 раз. Владельцы сайта не видят смысла в поддержке погодного сервера в таких условиях. Сайт будет закрыт в октябре.
temp.,
°C
wind,
m/s
gust,
m/s
humid.,
%
clouds,
%
prec.,
mm/h
press.,
hPa
HPBL,
m
4 october, tue
tue401:00+16sw67887 0.1 1020418
04:00+16sw898994 0.1 1018605
07:00+16sw81085100 0.1 1018536
10:00+16sw91287100 0.0 1017493
13:00+16sw101390100 0.0 1017653
16:00+16sw101489100 0.0 1016677
19:00+16sw111490100 0.0 1015666
22:00+16sw111592100 0.0 1015645
5 october, wed
wed501:00+16ssw121691100 0.0 1013691
04:00+16ssw121792100 0.0 1011746
07:00+16sw141990100 0.0 1009737
10:00+17sw152091100 0.3 1009983
13:00+15w9148350 2.3 1012952
16:00+15w13157620 0.2 10161246
19:00+14w1115645 0.3 10201542
22:00+14wnw1013670 0.0 10241247
6 october, thu
thu601:00+13wnw711650 0.0 1026929
04:00+13w79680 0.0 1028847
07:00+14w686817 0.0 1029782
10:00+15wsw896731 0.0 10311017
13:00+15wsw997384 0.0 1031951
16:00+16wsw897559 0.0 1029772
19:00+15wsw88805 0.0 1029612
22:00+15wsw89820 0.0 1029656
7 october, fri
fri701:00+15wsw89820 0.0 1027760
04:00+15sw81083100 0.0 1025776
07:00+15sw91184100 0.1 1023785
10:00+16wsw1012825 0.3 1023873
13:00+16wsw1113795 0.3 10221029
16:00+16wsw1113835 0.0 1020940
19:00+15w912855 0.1 1021795
22:00+14wnw610835 0.0 1022692
8 october, sat
sat801:00+13wnw68793 0.0 1023472
04:00+13wnw577834 0.0 1023310
07:00+12wnw34765 0.0 1024191
10:00+13w22725 0.0 1025221
13:00+15sw33675 0.0 1025610
16:00+15sw54677 0.0 1024608
19:00+14ssw346691 0.0 1023634
22:00+14s5670100 0.0 1022681